When you browse on this site, cookies collect data to enhance your experience and personalize the content and advertising you see.
Visit our Privacy Policy to learn more. By continuing to use the site, you agree to this use of cookies and data.
  • In Czech Republic
  • List of Countries
  • For 7 days
  • Water Temperature
  • Satellite Maps
  • Weather Map
  • Weather Widgets
  • user-avatar
    Login

    Hourly Weather Scherbenki

    Today, 16 February, Saturday

    Time Temperature Precipitation Wind Pressure Humidity
    00:00 0°C° 0 mm 5 mps 754 mmHg 94%
    01:00 0°C° 0 mm 5 mps 753 mmHg 95%
    02:00 0°C° 0 mm 5 mps 753 mmHg 95%
    03:00 0°C° 0 mm 5 mps 753 mmHg 95%
    04:00 0°C° 0 mm 5 mps 753 mmHg 95%
    05:00 0°C° 0 mm 5 mps 753 mmHg 95%
    06:00 0°C° 0 mm 4 mps 753 mmHg 95%
    07:00 -1°C° 0 mm 4 mps 752 mmHg 94%
    08:00 -1°C° 0 mm 4 mps 752 mmHg 94%
    09:00 0°C° 0 mm 4 mps 752 mmHg 93%
    10:00 0°C° 0 mm 4 mps 752 mmHg 92%
    11:00 0°C° 0 mm 4 mps 752 mmHg 91%
    12:00 +1°C° 0 mm 4 mps 752 mmHg 89%
    13:00 +1°C° 0 mm 4 mps 751 mmHg 86%
    14:00 +3°C° 0 mm 4 mps 751 mmHg 84%
    15:00 +1°C° 0 mm 4 mps 751 mmHg 83%
    16:00 +1°C° 0 mm 4 mps 751 mmHg 83%
    17:00 0°C° 0 mm 5 mps 750 mmHg 82%
    18:00 0°C° 0 mm 5 mps 750 mmHg 80%
    19:00 0°C° 0 mm 5 mps 749 mmHg 78%
    20:00 0°C° 0 mm 5 mps 749 mmHg 76%
    21:00 0°C° 0 mm 5 mps 748 mmHg 76%
    22:00 0°C° 0 mm 5 mps 748 mmHg 77%
    23:00 0°C° 0 mm 5 mps 747 mmHg 77%

    Tomorrow, 17 February, Sunday

    Time Temperature Precipitation Wind Pressure Humidity
    00:00 0°C° 0 mm 5 mps 747 mmHg 78%
    01:00 0°C° 0 mm 5 mps 747 mmHg 79%
    02:00 -1°C° 0 mm 6 mps 746 mmHg 80%
    03:00 0°C° 0 mm 5 mps 746 mmHg 83%
    04:00 -1°C° 0 mm 5 mps 745 mmHg 85%
    05:00 -1°C° 0 mm 5 mps 745 mmHg 87%
    06:00 -1°C° 0 mm 5 mps 745 mmHg 89%
    07:00 -1°C° 0 mm 5 mps 746 mmHg 91%
    08:00 -1°C° 0 mm 5 mps 746 mmHg 92%
    09:00 0°C° 0 mm 5 mps 746 mmHg 92%
    10:00 0°C° 0 mm 5 mps 746 mmHg 91%
    11:00 +1°C° 0 mm 5 mps 747 mmHg 91%
    12:00 +1°C° 0 mm 5 mps 747 mmHg 85%
    13:00 +1°C° 0 mm 5 mps 747 mmHg 80%
    14:00 +1°C° 0 mm 5 mps 748 mmHg 75%
    15:00 +1°C° 0 mm 5 mps 748 mmHg 74%
    16:00 0°C° 0 mm 5 mps 748 mmHg 74%
    17:00 -1°C° 0 mm 4 mps 749 mmHg 73%
    18:00 -1°C° 0 mm 4 mps 749 mmHg 75%
    19:00 -2°C° 0 mm 4 mps 749 mmHg 77%
    20:00 -2°C° 0 mm 4 mps 750 mmHg 79%
    21:00 -3°C° 0 mm 4 mps 750 mmHg 81%
    22:00 -3°C° 0 mm 4 mps 751 mmHg 82%
    23:00 -4°C° 0 mm 3 mps 751 mmHg 84%

    Day after tomorrow, 18 February, Monday

    Time Temperature Precipitation Wind Pressure Humidity
    00:00 -4°C° 0 mm 3 mps 752 mmHg 84%
    01:00 -4°C° 0 mm 3 mps 752 mmHg 84%
    02:00 -4°C° 0 mm 3 mps 752 mmHg 85%
    03:00 -4°C° 0 mm 3 mps 753 mmHg 85%
    04:00 -3°C° 0 mm 2 mps 753 mmHg 85%
    05:00 -4°C° 0 mm 2 mps 753 mmHg 84%
    06:00 -4°C° 0 mm 2 mps 754 mmHg 84%
    07:00 -4°C° 0 mm 2 mps 754 mmHg 84%
    08:00 -4°C° 0 mm 2 mps 754 mmHg 83%
    09:00 -3°C° 0 mm 2 mps 755 mmHg 77%
    10:00 -2°C° 0 mm 2 mps 755 mmHg 70%
    11:00 -2°C° 0 mm 2 mps 755 mmHg 64%
    12:00 +1°C° 0 mm 1 mps 756 mmHg 60%
    13:00 +1°C° 0 mm 1 mps 756 mmHg 56%
    14:00 +2°C° 0 mm 1 mps 756 mmHg 52%
    15:00 +1°C° 0 mm 1 mps 756 mmHg 55%
    16:00 +1°C° 0 mm 1 mps 755 mmHg 59%
    17:00 0°C° 0 mm 1 mps 755 mmHg 63%
    18:00 0°C° 0 mm 1 mps 755 mmHg 65%
    19:00 -1°C° 0 mm 1 mps 755 mmHg 67%
    20:00 -3°C° 0 mm 2 mps 755 mmHg 69%
    21:00 -3°C° 0 mm 2 mps 755 mmHg 70%
    22:00 -3°C° 0 mm 2 mps 755 mmHg 70%
    23:00 -4°C° 0 mm 3 mps 755 mmHg 71%

    19 February, Tuesday

    Time Temperature Precipitation Wind Pressure Humidity
    00:00 -4°C° 0 mm 3 mps 755 mmHg 70%
    01:00 -4°C° 0 mm 3 mps 754 mmHg 69%
    02:00 -4°C° 0 mm 4 mps 754 mmHg 68%
    03:00 -4°C° 0 mm 4 mps 754 mmHg 69%
    04:00 -4°C° 0 mm 4 mps 753 mmHg 69%
    05:00 -4°C° 0 mm 4 mps 753 mmHg 70%
    06:00 -3°C° 0 mm 4 mps 753 mmHg 72%
    07:00 -4°C° 0 mm 5 mps 752 mmHg 73%
    08:00 -4°C° 0 mm 5 mps 752 mmHg 75%
    09:00 -2°C° 0 mm 5 mps 752 mmHg 74%
    10:00 -1°C° 0 mm 5 mps 751 mmHg 73%
    11:00 +1°C° 0 mm 6 mps 751 mmHg 71%
    12:00 +1°C° 0 mm 6 mps 750 mmHg 71%
    13:00 +2°C° 0 mm 6 mps 750 mmHg 71%
    14:00 +2°C° 0 mm 6 mps 749 mmHg 71%
    15:00 +1°C° 0 mm 6 mps 748 mmHg 75%
    16:00 +1°C° 0 mm 5 mps 748 mmHg 78%
    17:00 0°C° 0 mm 5 mps 747 mmHg 81%
    18:00 0°C° 0 mm 5 mps 747 mmHg 83%
    19:00 0°C° 0 mm 5 mps 746 mmHg 84%
    20:00 0°C° 0 mm 5 mps 746 mmHg 85%
    21:00 0°C° 0 mm 5 mps 746 mmHg 86%
    22:00 0°C° 0 mm 5 mps 745 mmHg 87%
    23:00 0°C° 0 mm 5 mps 745 mmHg 88%

    20 February, Wednesday

    Time Temperature Precipitation Wind Pressure Humidity
    00:00 0°C° 0 mm 5 mps 744 mmHg 89%
    01:00 -1°C° 0 mm 5 mps 744 mmHg 89%
    02:00 -1°C° 0 mm 4 mps 743 mmHg 89%
    03:00 0°C° 0.1 mm 5 mps 743 mmHg 89%
    04:00 0°C° 0.1 mm 5 mps 743 mmHg 90%
    05:00 0°C° 0.1 mm 5 mps 743 mmHg 90%
    06:00 0°C° 0 mm 5 mps 743 mmHg 89%
    07:00 0°C° 0 mm 5 mps 743 mmHg 88%
    08:00 0°C° 0 mm 5 mps 744 mmHg 87%
    09:00 +1°C° 0 mm 5 mps 744 mmHg 85%
    10:00 +1°C° 0 mm 6 mps 744 mmHg 83%
    11:00 +1°C° 0 mm 6 mps 744 mmHg 81%
    12:00 +1°C° 0 mm 6 mps 744 mmHg 81%
    13:00 +1°C° 0 mm 6 mps 744 mmHg 82%
    14:00 +1°C° 0 mm 6 mps 744 mmHg 82%
    15:00 +1°C° 0 mm 6 mps 744 mmHg 83%
    16:00 +1°C° 0 mm 6 mps 744 mmHg 83%
    17:00 +1°C° 0 mm 6 mps 744 mmHg 83%
    18:00 +1°C° 0.1 mm 6 mps 744 mmHg 84%
    19:00 +1°C° 0.1 mm 6 mps 744 mmHg 85%
    20:00 +1°C° 0.1 mm 6 mps 744 mmHg 86%
    21:00 +1°C° 0.1 mm 6 mps 744 mmHg 87%
    22:00 +1°C° 0.1 mm 6 mps 744 mmHg 87%
    23:00 +1°C° 0.1 mm 6 mps 744 mmHg 88%

    21 February, Thursday

    Time Temperature Precipitation Wind Pressure Humidity
    00:00 0°C° 0 mm 5 mps 744 mmHg 87%
    01:00 -1°C° 0 mm 5 mps 744 mmHg 86%
    02:00 -1°C° 0 mm 5 mps 744 mmHg 86%
    03:00 -2°C° 0 mm 5 mps 745 mmHg 84%
    04:00 -2°C° 0 mm 5 mps 745 mmHg 82%
    05:00 -2°C° 0 mm 5 mps 745 mmHg 80%
    06:00 -2°C° 0 mm 5 mps 745 mmHg 80%
    07:00 -4°C° 0 mm 5 mps 746 mmHg 79%
    08:00 -4°C° 0 mm 5 mps 746 mmHg 79%
    09:00 -4°C° 0 mm 6 mps 747 mmHg 75%
    10:00 -4°C° 0 mm 6 mps 748 mmHg 71%
    11:00 -3°C° 0 mm 6 mps 748 mmHg 67%
    12:00 -3°C° 0 mm 6 mps 749 mmHg 64%
    13:00 -3°C° 0 mm 6 mps 749 mmHg 62%
    14:00 -3°C° 0 mm 6 mps 750 mmHg 59%
    15:00 -4°C° 0 mm 5 mps 751 mmHg 60%
    16:00 -4°C° 0 mm 5 mps 751 mmHg 61%
    17:00 -4°C° 0 mm 4 mps 752 mmHg 61%
    18:00 -4°C° 0 mm 4 mps 753 mmHg 62%
    19:00 -5°C° 0 mm 3 mps 753 mmHg 62%
    20:00 -5°C° 0 mm 3 mps 754 mmHg 63%
    21:00 -5°C° 0 mm 3 mps 755 mmHg 61%
    22:00 -5°C° 0 mm 3 mps 755 mmHg 60%
    23:00 -5°C° 0 mm 3 mps 756 mmHg 58%
    Show more